PLT2261 SBEG-SBBE

Flight info

Callsign PLT2261
Flight time N/A
Altitude 35000
Route XOLOK UZ81 DADUD
Aircraft B738/M-SDE2E3FGHIRWXY/LB1

Departure

Time 2026-04-22 02:55
Airport Eduardo Gomes International Airport (SBEG)

Arrival

Time N/A
Airport Val de Cans/Júlio Cezar Ribeiro International Airport (SBBE)
Time Latitude Longitude Altitude Speed Heading
2026-04-22 02:28 -3.03280 -60.04622 240 ft 0 kts
2026-04-22 02:46 -3.03288 -60.04623 240 ft 2 kts
2026-04-22 02:46 -3.03303 -60.04623 240 ft 2 kts
2026-04-22 02:46 -3.03318 -60.04623 240 ft 2 kts
2026-04-22 02:46 -3.03328 -60.04623 240 ft 2 kts
2026-04-22 02:47 -3.03342 -60.04620 240 ft 2 kts 323°
2026-04-22 02:47 -3.03352 -60.04609 240 ft 2 kts 293°
2026-04-22 02:47 -3.03355 -60.04599 240 ft 0 kts 271°
2026-04-22 02:47 -3.03355 -60.04591 240 ft 0 kts 268°
2026-04-22 02:49 -3.03355 -60.04600 240 ft 3 kts 267°
2026-04-22 02:50 -3.03356 -60.04634 240 ft 6 kts 269°
2026-04-22 02:50 -3.03358 -60.04688 240 ft 9 kts 265°
2026-04-22 02:50 -3.03371 -60.04764 239 ft 13 kts 248°
2026-04-22 02:50 -3.03431 -60.04846 239 ft 16 kts 224°
2026-04-22 02:51 -3.03527 -60.04926 240 ft 19 kts 225°
2026-04-22 02:51 -3.03595 -60.05051 240 ft 21 kts 254°
2026-04-22 02:51 -3.03638 -60.05208 240 ft 25 kts 254°
2026-04-22 02:51 -3.03679 -60.05397 239 ft 28 kts 261°
2026-04-22 02:52 -3.03691 -60.05592 237 ft 27 kts 269°
2026-04-22 02:52 -3.03689 -60.05782 235 ft 26 kts 271°
2026-04-22 02:52 -3.03692 -60.05963 235 ft 25 kts 270°
2026-04-22 02:52 -3.03702 -60.06130 236 ft 21 kts 244°
2026-04-22 02:53 -3.03759 -60.06172 237 ft 0 kts 188°
2026-04-22 02:54 -3.03775 -60.06173 237 ft 8 kts 182°
2026-04-22 02:54 -3.03853 -60.06118 237 ft 20 kts 98°
2026-04-22 02:54 -3.03856 -60.06063 236 ft 11 kts 91°
2026-04-22 02:54 -3.03855 -60.05693 238 ft 94 kts 90°
2026-04-22 02:55 -3.03860 -60.04777 242 ft 165 kts 90°
2026-04-22 02:55 -3.03864 -60.03564 669 ft 188 kts 88°
2026-04-22 02:55 -3.03798 -60.02285 1640 ft 187 kts 86°
2026-04-22 02:55 -3.03789 -60.01070 2662 ft 172 kts 92°
2026-04-22 02:56 -3.03881 -59.99877 3283 ft 177 kts 93°
2026-04-22 02:56 -3.03958 -59.98643 3924 ft 180 kts 92°
2026-04-22 02:56 -3.04004 -59.97412 4588 ft 181 kts 91°
2026-04-22 02:56 -3.04043 -59.96156 5208 ft 184 kts 91°
2026-04-22 02:57 -3.04085 -59.94836 5703 ft 196 kts 91°
2026-04-22 02:57 -3.04129 -59.93444 6211 ft 206 kts 91°
2026-04-22 02:57 -3.04177 -59.91963 6635 ft 224 kts 91°
2026-04-22 02:57 -3.04230 -59.90339 7088 ft 243 kts 91°
2026-04-22 02:58 -3.04285 -59.88604 7656 ft 256 kts 91°
2026-04-22 02:58 -3.04343 -59.86795 8209 ft 270 kts 91°
2026-04-22 02:58 -3.04406 -59.84871 8841 ft 280 kts 91°
2026-04-22 02:58 -3.04472 -59.82926 9577 ft 286 kts 91°
2026-04-22 02:59 -3.04540 -59.80941 10355 ft 289 kts 91°
2026-04-22 02:59 -3.04609 -59.78871 10833 ft 305 kts 91°
2026-04-22 02:59 -3.04680 -59.76705 11265 ft 320 kts 91°
2026-04-22 02:59 -3.04754 -59.74432 11682 ft 336 kts 91°
2026-04-22 03:00 -3.04832 -59.72044 12084 ft 351 kts 91°
2026-04-22 03:00 -3.04915 -59.69585 12655 ft 360 kts 91°
2026-04-22 03:00 -3.05002 -59.67063 13314 ft 365 kts 92°
2026-04-22 03:00 -3.05092 -59.64543 14005 ft 367 kts 92°
2026-04-22 03:01 -3.05183 -59.61962 14621 ft 372 kts 92°
2026-04-22 03:01 -3.05275 -59.59374 15238 ft 375 kts 91°
2026-04-22 03:01 -3.05367 -59.56759 15829 ft 379 kts 91°
2026-04-22 03:01 -3.05459 -59.54121 16399 ft 383 kts 91°
2026-04-22 03:02 -3.05552 -59.51466 16974 ft 386 kts 91°
2026-04-22 03:02 -3.05646 -59.48785 17546 ft 388 kts 91°
2026-04-22 03:02 -3.05739 -59.46093 18068 ft 392 kts 92°
2026-04-22 03:02 -3.05834 -59.43370 18597 ft 395 kts 92°
2026-04-22 03:03 -3.05930 -59.40615 19125 ft 398 kts 92°
2026-04-22 03:03 -3.06027 -59.37822 19700 ft 400 kts 92°
2026-04-22 03:03 -3.06124 -59.35047 20152 ft 404 kts 92°
2026-04-22 03:03 -3.06222 -59.32254 20728 ft 405 kts 92°
2026-04-22 03:04 -3.06321 -59.29424 21185 ft 409 kts 92°
2026-04-22 03:04 -3.06420 -59.26589 21667 ft 412 kts 92°
2026-04-22 03:04 -3.06520 -59.23714 22110 ft 415 kts 92°
2026-04-22 03:04 -3.06621 -59.20824 22561 ft 418 kts 92°
2026-04-22 03:05 -3.06723 -59.17919 23003 ft 421 kts 92°
2026-04-22 03:05 -3.06826 -59.14963 23490 ft 423 kts 92°
2026-04-22 03:05 -3.06928 -59.12056 23916 ft 426 kts 92°
2026-04-22 03:05 -3.07033 -59.09065 24368 ft 428 kts 92°
2026-04-22 03:06 -3.07136 -59.06093 24878 ft 429 kts 92°
2026-04-22 03:06 -3.07239 -59.03137 25326 ft 431 kts 92°
2026-04-22 03:06 -3.07342 -59.00142 25761 ft 433 kts 92°
2026-04-22 03:06 -3.07446 -58.97120 26150 ft 436 kts 92°
2026-04-22 03:07 -3.07551 -58.94078 26558 ft 438 kts 91°
2026-04-22 03:07 -3.07651 -58.91166 26921 ft 441 kts 91°
2026-04-22 03:07 -3.07757 -58.88109 27404 ft 440 kts 91°
2026-04-22 03:07 -3.07863 -58.85029 27744 ft 444 kts 91°
2026-04-22 03:08 -3.07969 -58.81952 28167 ft 445 kts 91°
2026-04-22 03:08 -3.08075 -58.78842 28518 ft 447 kts 91°
2026-04-22 03:08 -3.08181 -58.75733 28874 ft 449 kts 91°
2026-04-22 03:08 -3.08287 -58.72636 29243 ft 451 kts 91°
2026-04-22 03:09 -3.08396 -58.69466 29597 ft 453 kts 91°
2026-04-22 03:09 -3.08503 -58.66328 30026 ft 453 kts 91°
2026-04-22 03:09 -3.08610 -58.63205 30538 ft 451 kts 91°
2026-04-22 03:09 -3.08717 -58.60114 31054 ft 448 kts 91°
2026-04-22 03:10 -3.08824 -58.56980 31570 ft 445 kts 91°
2026-04-22 03:10 -3.08928 -58.53910 31996 ft 444 kts 91°
2026-04-22 03:10 -3.09032 -58.50813 32350 ft 445 kts 91°
2026-04-22 03:10 -3.09133 -58.47772 32702 ft 445 kts 91°